timestamp,wind_dir_avg,wind_spd_max_dir,wind_spd_avg,wind_spd_gust,battery_voltage,lat,long
2017-09-23 00:00:00+00:00,277.0,283.0,8.77,9.33,12.7,47.59359,-54.27349
2017-09-23 00:10:00+00:00,280.0,287.0,7.34,8.68,12.6,47.59359,-54.27349
2017-09-23 00:20:00+00:00,282.0,287.0,7.27,8.27,12.7,47.59359,-54.27349
2017-09-23 00:30:00+00:00,281.0,278.0,7.3,9.28,12.7,47.59359,-54.27349
2017-09-23 00:40:00+00:00,280.0,283.0,7.63,8.38,12.7,47.59359,-54.27349
2017-09-23 00:50:00+00:00,277.0,284.0,6.03,6.72,12.7,47.59359,-54.27349
2017-09-23 01:00:00+00:00,274.0,272.0,6.82,7.59,12.6,47.59359,-54.27349
2017-09-23 01:10:00+00:00,269.0,270.0,6.2,6.85,12.6,47.59359,-54.27349
2017-09-23 01:20:00+00:00,265.0,265.0,5.37,5.87,12.7,47.59359,-54.27349
2017-09-23 01:30:00+00:00,269.0,274.0,4.66,5.43,12.7,47.59359,-54.27349
2017-09-23 01:40:00+00:00,259.0,266.0,4.29,5.14,12.7,47.59359,-54.27349
2017-09-23 01:50:00+00:00,251.0,252.0,3.93,4.81,12.7,47.59359,-54.27349
2017-09-23 02:00:00+00:00,259.0,256.0,4.08,4.59,12.6,47.59359,-54.27349
2017-09-23 02:10:00+00:00,260.0,263.0,2.91,3.26,12.6,47.59359,-54.27349
2017-09-23 02:20:00+00:00,264.0,265.0,3.44,3.8,12.6,47.59359,-54.27349
2017-09-23 02:30:00+00:00,255.0,249.0,3.36,3.61,12.6,47.59359,-54.27349
2017-09-23 02:40:00+00:00,271.0,272.0,3.26,4.26,12.7,47.59359,-54.27349
2017-09-23 02:50:00+00:00,258.0,259.0,4.3,4.59,12.7,47.59359,-54.27349
2017-09-23 03:00:00+00:00,261.0,264.0,3.57,4.53,12.6,47.59359,-54.27349
2017-09-23 03:10:00+00:00,262.0,265.0,4.34,4.79,12.6,47.59359,-54.27349
2017-09-23 03:20:00+00:00,262.0,257.0,4.91,5.41,12.6,47.59359,-54.27349
2017-09-23 03:30:00+00:00,262.0,263.0,5.62,6.22,12.6,47.59359,-54.27349
2017-09-23 03:40:00+00:00,261.0,258.0,5.43,6.62,12.6,47.59359,-54.27349
2017-09-23 03:50:00+00:00,259.0,256.0,6.21,6.84,12.6,47.59359,-54.27349
2017-09-23 04:00:00+00:00,256.0,251.0,6.41,6.93,12.6,47.59359,-54.27349
2017-09-23 04:10:00+00:00,253.0,252.0,5.92,6.26,12.6,47.59359,-54.27349
2017-09-23 04:20:00+00:00,253.0,253.0,5.95,6.33,12.6,47.59359,-54.27349
2017-09-23 04:30:00+00:00,258.0,258.0,5.27,5.61,12.6,47.59359,-54.27349
2017-09-23 04:40:00+00:00,249.0,248.0,4.91,5.56,12.6,47.59359,-54.27349
2017-09-23 04:50:00+00:00,245.0,241.0,4.93,5.73,12.6,47.59359,-54.27349
2017-09-23 05:00:00+00:00,250.0,252.0,4.78,5.68,12.6,47.59359,-54.27349
2017-09-23 05:10:00+00:00,239.0,238.0,5.41,6.24,12.6,47.59359,-54.27349
2017-09-23 05:20:00+00:00,248.0,248.0,5.5,6.4,12.6,47.59359,-54.27349
2017-09-23 05:30:00+00:00,247.0,248.0,6.35,6.7,12.6,47.59359,-54.27349
2017-09-23 05:40:00+00:00,250.0,249.0,5.06,5.39,12.6,47.59359,-54.27349
2017-09-23 05:50:00+00:00,250.0,253.0,5.55,6.0,12.6,47.59359,-54.27349
2017-09-23 06:00:00+00:00,245.0,251.0,5.03,5.84,12.6,47.59359,-54.27349
2017-09-23 06:10:00+00:00,250.0,248.0,4.83,5.42,12.6,47.59359,-54.27349
2017-09-23 06:20:00+00:00,257.0,257.0,5.5,6.19,12.6,47.59359,-54.27349
2017-09-23 06:30:00+00:00,253.0,251.0,5.86,6.63,12.6,47.59359,-54.27349
2017-09-23 06:40:00+00:00,255.0,256.0,6.37,6.74,12.6,47.59359,-54.27349
2017-09-23 06:50:00+00:00,246.0,249.0,6.06,6.81,12.6,47.59359,-54.27349
2017-09-23 07:00:00+00:00,258.0,259.0,6.46,7.06,12.6,47.59359,-54.27349
2017-09-23 07:10:00+00:00,257.0,255.0,6.9,7.48,12.5,47.59359,-54.27349
2017-09-23 07:20:00+00:00,257.0,263.0,6.6,7.17,12.6,47.59359,-54.27349
2017-09-23 07:30:00+00:00,259.0,261.0,5.08,5.94,12.6,47.59359,-54.27349
2017-09-23 07:40:00+00:00,252.0,254.0,5.56,6.45,12.6,47.59359,-54.27349
2017-09-23 07:50:00+00:00,251.0,256.0,4.55,5.43,12.6,47.59359,-54.27349
2017-09-23 08:00:00+00:00,264.0,257.0,3.6,4.18,12.6,47.59359,-54.27349
2017-09-23 08:10:00+00:00,249.0,263.0,2.72,3.37,12.5,47.59359,-54.27349
2017-09-23 08:20:00+00:00,229.0,232.0,3.74,4.56,12.6,47.59359,-54.27349
2017-09-23 08:30:00+00:00,262.0,257.0,4.73,5.27,12.6,47.59359,-54.27349
2017-09-23 08:40:00+00:00,271.0,274.0,6.36,7.01,12.6,47.59359,-54.27349
2017-09-23 08:50:00+00:00,254.0,253.0,4.75,5.16,12.6,47.59359,-54.27349
2017-09-23 09:00:00+00:00,256.0,256.0,7.05,7.57,12.6,47.59359,-54.27349
2017-09-23 09:10:00+00:00,263.0,263.0,6.37,6.76,12.5,47.59359,-54.27349
2017-09-23 09:20:00+00:00,263.0,261.0,5.57,6.51,12.6,47.59359,-54.27349
2017-09-23 09:30:00+00:00,265.0,265.0,6.26,6.81,12.6,47.59359,-54.27349
2017-09-23 09:40:00+00:00,265.0,266.0,7.37,8.03,12.6,47.59359,-54.27349
2017-09-23 09:50:00+00:00,267.0,268.0,6.04,8.1,12.6,47.59359,-54.27349
2017-09-23 10:00:00+00:00,265.0,270.0,5.48,6.2,12.9,47.59359,-54.27349
2017-09-23 10:10:00+00:00,262.0,263.0,6.6,7.38,13.1,47.59359,-54.27349
2017-09-23 10:20:00+00:00,244.0,238.0,5.37,6.14,13.4,47.59359,-54.27349
2017-09-23 10:30:00+00:00,250.0,247.0,4.96,6.01,13.7,47.59359,-54.27349
2017-09-23 10:40:00+00:00,255.0,258.0,5.86,7.35,13.8,47.59359,-54.27349
2017-09-23 10:50:00+00:00,251.0,251.0,6.28,7.11,13.5,47.59359,-54.27349
2017-09-23 11:00:00+00:00,246.0,248.0,7.1,7.84,13.8,47.59359,-54.27349
2017-09-23 11:10:00+00:00,246.0,244.0,7.42,9.01,13.5,47.59359,-54.27349
2017-09-23 11:20:00+00:00,251.0,255.0,6.4,7.4,13.9,47.59359,-54.27349
2017-09-23 11:30:00+00:00,243.0,253.0,5.26,6.26,13.7,47.59359,-54.27349
2017-09-23 11:40:00+00:00,236.0,239.0,4.71,5.56,13.8,47.59359,-54.27349
2017-09-23 11:50:00+00:00,247.0,250.0,5.74,6.7,13.8,47.59359,-54.27349
2017-09-23 12:00:00+00:00,240.0,239.0,5.42,6.41,13.8,47.59359,-54.27349
2017-09-23 12:10:00+00:00,241.0,240.0,6.39,7.52,13.8,47.59359,-54.27349
2017-09-23 12:20:00+00:00,232.0,247.0,5.67,7.48,13.8,47.59359,-54.27349
2017-09-23 12:30:00+00:00,233.0,232.0,6.26,7.14,13.8,47.59359,-54.27349
2017-09-23 12:40:00+00:00,232.0,234.0,6.42,7.09,13.8,47.59359,-54.27349
2017-09-23 12:50:00+00:00,230.0,233.0,6.51,7.28,13.8,47.59359,-54.27349
2017-09-23 13:00:00+00:00,236.0,231.0,6.83,7.72,13.8,47.59359,-54.27349
2017-09-23 13:10:00+00:00,228.0,229.0,5.91,6.46,13.8,47.59359,-54.27349
2017-09-23 13:20:00+00:00,222.0,222.0,6.49,7.24,13.8,47.59359,-54.27349
2017-09-23 13:30:00+00:00,216.0,215.0,6.71,7.17,13.8,47.59359,-54.27349
2017-09-23 13:40:00+00:00,214.0,213.0,7.07,7.7,13.9,47.59359,-54.27349
2017-09-23 13:50:00+00:00,218.0,215.0,6.44,7.02,13.9,47.59359,-54.27349
2017-09-23 14:00:00+00:00,225.0,229.0,5.84,6.49,13.7,47.59359,-54.27349
2017-09-23 14:10:00+00:00,219.0,217.0,7.22,8.05,13.9,47.59359,-54.27349
2017-09-23 14:20:00+00:00,217.0,217.0,9.86,10.99,13.8,47.59359,-54.27349
2017-09-23 14:30:00+00:00,217.0,219.0,8.89,9.68,13.9,47.59359,-54.27349
2017-09-23 14:40:00+00:00,225.0,225.0,8.63,9.48,13.9,47.59359,-54.27349
2017-09-23 14:50:00+00:00,222.0,223.0,11.04,12.61,13.9,47.59359,-54.27349
2017-09-23 15:00:00+00:00,224.0,221.0,11.16,13.23,13.8,47.59359,-54.27349
2017-09-23 15:10:00+00:00,227.0,227.0,12.67,13.99,13.9,47.59359,-54.27349
2017-09-23 15:20:00+00:00,229.0,230.0,12.44,14.2,13.9,47.59359,-54.27349
2017-09-23 15:30:00+00:00,229.0,238.0,12.66,16.27,13.9,47.59359,-54.27349
2017-09-23 15:40:00+00:00,225.0,222.0,12.93,14.86,13.8,47.59359,-54.27349
2017-09-23 15:50:00+00:00,221.0,223.0,13.1,14.95,13.9,47.59359,-54.27349
2017-09-23 16:00:00+00:00,216.0,217.0,12.84,14.0,13.8,47.59359,-54.27349
2017-09-23 16:10:00+00:00,214.0,215.0,10.03,11.75,13.7,47.59359,-54.27349
2017-09-23 16:20:00+00:00,219.0,217.0,11.67,12.86,14.3,47.59359,-54.27349
2017-09-23 16:30:00+00:00,220.0,225.0,11.52,12.92,13.7,47.59359,-54.27349
2017-09-23 16:40:00+00:00,226.0,226.0,11.64,13.38,13.7,47.59359,-54.27349
2017-09-23 16:50:00+00:00,229.0,231.0,11.0,13.11,13.7,47.59359,-54.27349
2017-09-23 17:00:00+00:00,231.0,231.0,11.66,14.01,13.8,47.59359,-54.27349
2017-09-23 17:10:00+00:00,232.0,230.0,9.69,11.87,13.9,47.59359,-54.27349
2017-09-23 17:20:00+00:00,228.0,228.0,11.51,13.14,13.8,47.59359,-54.27349
2017-09-23 17:30:00+00:00,221.0,225.0,11.66,13.09,13.8,47.59359,-54.27349
2017-09-23 17:40:00+00:00,226.0,222.0,13.03,14.78,13.8,47.59359,-54.27349
2017-09-23 17:50:00+00:00,228.0,233.0,13.22,15.33,13.7,47.59359,-54.27349
2017-09-23 18:00:00+00:00,225.0,225.0,13.93,15.82,13.7,47.59359,-54.27349
2017-09-23 18:10:00+00:00,224.0,229.0,14.24,16.84,13.7,47.59359,-54.27349
2017-09-23 18:20:00+00:00,224.0,220.0,14.0,17.37,13.7,47.59359,-54.27349
2017-09-23 18:30:00+00:00,225.0,223.0,15.25,16.77,13.7,47.59359,-54.27349
2017-09-23 18:40:00+00:00,225.0,221.0,12.97,14.89,13.7,47.59359,-54.27349
2017-09-23 18:50:00+00:00,239.0,251.0,10.91,14.73,13.8,47.59359,-54.27349
2017-09-23 19:00:00+00:00,245.0,239.0,11.02,13.91,13.7,47.59359,-54.27349
2017-09-23 19:10:00+00:00,248.0,248.0,9.03,11.52,14.0,47.59359,-54.27349
2017-09-23 19:20:00+00:00,248.0,243.0,10.28,12.06,13.8,47.59359,-54.27349
2017-09-23 19:30:00+00:00,241.0,250.0,10.73,12.72,13.7,47.59359,-54.27349
2017-09-23 19:40:00+00:00,243.0,255.0,10.45,13.8,13.7,47.59359,-54.27349
2017-09-23 19:50:00+00:00,244.0,242.0,11.08,12.97,14.0,47.59359,-54.27349
2017-09-23 20:00:00+00:00,239.0,240.0,10.13,12.73,13.8,47.59359,-54.27349
2017-09-23 20:10:00+00:00,236.0,238.0,10.11,11.6,13.8,47.59359,-54.27349
2017-09-23 20:20:00+00:00,231.0,232.0,10.84,12.67,13.9,47.59359,-54.27349
2017-09-23 20:30:00+00:00,242.0,246.0,7.22,8.82,13.9,47.59359,-54.27349
2017-09-23 20:40:00+00:00,255.0,252.0,9.69,10.84,13.8,47.59359,-54.27349
2017-09-23 20:50:00+00:00,258.0,261.0,11.25,13.9,13.8,47.59359,-54.27349
2017-09-23 21:00:00+00:00,261.0,260.0,10.99,12.9,13.6,47.59359,-54.27349
2017-09-23 21:10:00+00:00,264.0,265.0,10.75,12.22,13.4,47.59359,-54.27349
2017-09-23 21:20:00+00:00,266.0,262.0,11.33,12.9,13.4,47.59359,-54.27349
2017-09-23 21:30:00+00:00,261.0,260.0,10.23,11.71,13.3,47.59359,-54.27349
2017-09-23 21:40:00+00:00,261.0,258.0,9.76,11.74,13.2,47.59359,-54.27349
2017-09-23 21:50:00+00:00,262.0,261.0,10.0,11.52,13.2,47.59359,-54.27349
2017-09-23 22:00:00+00:00,262.0,264.0,8.89,10.24,13.0,47.59359,-54.27349
2017-09-23 22:10:00+00:00,266.0,271.0,8.1,9.47,12.9,47.59359,-54.27349
2017-09-23 22:20:00+00:00,263.0,267.0,7.62,8.19,12.9,47.59359,-54.27349
2017-09-23 22:30:00+00:00,272.0,271.0,7.67,9.15,12.9,47.59359,-54.27349
2017-09-23 22:40:00+00:00,264.0,264.0,7.41,8.64,12.8,47.59359,-54.27349
2017-09-23 22:50:00+00:00,271.0,272.0,8.1,10.59,12.8,47.59359,-54.27349
2017-09-23 23:00:00+00:00,282.0,287.0,7.6,8.74,12.7,47.59359,-54.27349
2017-09-23 23:10:00+00:00,279.0,277.0,6.98,7.81,12.6,47.59359,-54.27349
2017-09-23 23:20:00+00:00,273.0,272.0,6.19,7.05,12.7,47.59359,-54.27349
2017-09-23 23:30:00+00:00,279.0,277.0,6.9,7.98,12.7,47.59359,-54.27349
2017-09-23 23:40:00+00:00,280.0,279.0,7.43,9.01,12.7,47.59359,-54.27349
2017-09-23 23:50:00+00:00,289.0,292.0,7.92,9.15,12.7,47.59359,-54.27349
